Aeroporto :
LOGIN :

Iscrizione | Disclaimer

   EN    FR    IT 

 










Sommario :    VFR   VFR Marginale   IFR   IFR Intensivo   IFR Molto Intensivo
Visibilità : 
Base nubi : 
>= 8 km
>= 3000ft
5 / 8 km
1000 / 3000 ft
1500m / 5 km
500 / 1000 ft
800 / 1500m
200 / 500 ft
< 800m
< 200 ft
Simboli :   Temporali  Nebbia  Neve Forte  Precipitazioni Forti  Vento > 20 kt
SIGMETs :   Varie  Temporali  Ghiacco  Turbolenza  Onda orograficha  Ceneri Vulcaniche






- Altitudine del aeroporto : 15 ft
- Codice IATA : BHD


EGAC - George Best Belfast City

ULTIMO METAR :
  • 182250Z AUTO 04008KT 9999 NCD 10/08 Q1026

METARs OBSOLETI :
  • 182220Z AUTO 05004KT 9999 NCD 10/09 Q1026
  • 182150Z AUTO 05003KT 9999 NCD 11/09 Q1025
  • 182120Z AUTO VRB02KT 9999 NCD 11/09 Q1025
  • 182050Z AUTO VRB02KT 9999 NCD 12/10 Q1026
  • 182020Z AUTO VRB02KT 9999 NCD 12/10 Q1025

Previsioni scadute.
ATIS : +44 02890 935 124



MetMap, La meteo Aeronautica in un colpo d'occhio ! - Copyright ORBIFLY Dicembre 2007 - Disclaimer

ORBIFLY MET'MAP TEAM :

Programmazione e sviluppo : Alexandra Zaïnal
Concezione : Baudouin d'Aumeries
Aiuto per la programmazione : Marc-Olivier Méhu
Supporto tecnico e logistico : Manuel Goepfert
Aiuto per la traduzione : Arnaldo La Scala

Contatto : metmap@orbifly.com




FONTI E CREDITI :

   NOAA